Location: Tierra Monte Subdivision
(35.2092°N, 106.4864°W)
Time: 11:11:22
(UTC+00:00)

NOSS 3-2 (C) - Pass Details

Date: 30 March 2020
Orbit: 802 x 1410 km, 63.4° (Epoch: 29 May)

Event Time Altitude Azimuth Distance (km) Brightness Sun altitude
Exits shadow 11:27:58 11° 195° (SSW) 2,332 5.2 -18.1°
Maximum altitude 11:33:10 60° 116° (ESE) 982 3.7 -17.1°
Drops below altitude 10° 11:39:09 10° 38° (NE) 2,669 6.6 -16.0°
Sets 11:41:54 0° 35° (NE) 3,707 7.4 -15.4°
